Time,TemperatureF,DewpointF,PressureIn,WindDirection,WindDirectionDegrees,WindSpeedMPH,WindSpeedGustMPH,Humidity,HourlyPrecipIn,Conditions,Clouds,dailyrainin,SoftwareType,DateUTC
2013-01-29 00:14:00,69.5,63.0,29.74,South,187,9.0,19.0,80,0.00,,,0.00,weatherlink.com 1.10,2013-01-29 06:14:00,
2013-01-29 00:28:00,69.3,63.0,29.74,SSW,192,4.0,15.0,81,0.00,,,0.00,weatherlink.com 1.10,2013-01-29 06:28:00,
2013-01-29 00:43:00,69.2,64.0,29.73,South,187,15.0,15.0,82,0.00,,,0.00,weatherlink.com 1.10,2013-01-29 06:43:00,
2013-01-29 00:58:00,69.1,63.0,29.72,South,179,12.0,20.0,82,0.00,,,0.00,weatherlink.com 1.10,2013-01-29 06:58:00,
2013-01-29 01:13:00,69.0,64.0,29.72,South,187,14.0,20.0,83,0.00,,,0.00,weatherlink.com 1.10,2013-01-29 07:13:00,
2013-01-29 01:29:00,69.1,64.0,29.71,South,177,0.0,15.0,83,0.00,,,0.00,weatherlink.com 1.10,2013-01-29 07:29:00,
2013-01-29 01:43:00,68.8,64.0,29.70,SE,131,7.0,15.0,83,0.00,,,0.00,weatherlink.com 1.10,2013-01-29 07:43:00,
2013-01-29 01:58:00,68.6,64.0,29.69,SSE,151,7.0,16.0,84,0.00,,,0.00,weatherlink.com 1.10,2013-01-29 07:58:00,
2013-01-29 02:13:00,68.8,64.0,29.70,SE,136,12.0,15.0,84,0.00,,,0.00,weatherlink.com 1.10,2013-01-29 08:13:00,
2013-01-29 02:29:00,68.9,64.0,29.69,South,173,0.0,17.0,84,0.00,,,0.00,weatherlink.com 1.10,2013-01-29 08:29:00,
2013-01-29 02:44:00,68.9,64.0,29.69,SSE,167,6.0,14.0,84,0.00,,,0.00,weatherlink.com 1.10,2013-01-29 08:44:00,
2013-01-29 02:59:00,68.8,64.0,29.68,South,175,2.0,20.0,84,0.00,,,0.00,weatherlink.com 1.10,2013-01-29 08:59:00,
2013-01-29 03:14:00,68.5,64.0,29.68,SSE,148,5.0,12.0,85,0.00,,,0.00,weatherlink.com 1.10,2013-01-29 09:14:00,
2013-01-29 03:29:00,68.5,64.0,29.67,SSW,195,5.0,17.0,85,0.00,,,0.00,weatherlink.com 1.10,2013-01-29 09:29:00,
2013-01-29 03:44:00,68.6,64.0,29.67,South,181,6.0,17.0,85,0.00,,,0.00,weatherlink.com 1.10,2013-01-29 09:44:00,
2013-01-29 03:59:00,68.9,64.0,29.66,SSE,161,6.0,26.0,85,0.00,,,0.00,weatherlink.com 1.10,2013-01-29 09:59:00,
2013-01-29 04:14:00,69.0,64.0,29.65,SE,142,9.0,18.0,85,0.00,,,0.00,weatherlink.com 1.10,2013-01-29 10:14:00,
2013-01-29 04:29:00,69.1,65.0,29.66,South,185,13.0,24.0,85,0.00,,,0.00,weatherlink.com 1.10,2013-01-29 10:29:00,
2013-01-29 04:44:00,69.1,65.0,29.65,SSE,162,7.0,28.0,85,0.00,,,0.00,weatherlink.com 1.10,2013-01-29 10:44:00,
2013-01-29 04:59:00,69.3,64.0,29.64,South,182,2.0,23.0,84,0.00,,,0.00,weatherlink.com 1.10,2013-01-29 10:59:00,
2013-01-29 05:14:00,69.0,64.0,29.63,SE,140,3.0,24.0,84,0.00,,,0.00,weatherlink.com 1.10,2013-01-29 11:14:00,
2013-01-29 05:29:00,68.9,64.0,29.62,SSE,154,5.0,16.0,85,0.00,,,0.00,weatherlink.com 1.10,2013-01-29 11:29:00,
2013-01-29 05:44:00,68.7,64.0,29.62,SSE,163,12.0,14.0,85,0.00,,,0.00,weatherlink.com 1.10,2013-01-29 11:44:00,
2013-01-29 05:59:00,69.1,65.0,29.62,SSE,153,17.0,27.0,85,0.00,,,0.00,weatherlink.com 1.10,2013-01-29 11:59:00,
2013-01-29 06:14:00,69.2,65.0,29.62,SSE,160,4.0,21.0,85,0.00,,,0.00,weatherlink.com 1.10,2013-01-29 12:14:00,
2013-01-29 06:29:00,69.2,65.0,29.62,SSW,209,7.0,23.0,85,0.00,,,0.00,weatherlink.com 1.10,2013-01-29 12:29:00,
2013-01-29 06:44:00,69.1,65.0,29.62,SSW,196,0.0,16.0,85,0.00,,,0.00,weatherlink.com 1.10,2013-01-29 12:44:00,
2013-01-29 06:59:00,68.9,65.0,29.62,South,190,2.0,19.0,86,0.00,,,0.00,weatherlink.com 1.10,2013-01-29 12:59:00,
2013-01-29 07:14:00,69.0,65.0,29.62,SSE,165,7.0,22.0,86,0.00,,,0.00,weatherlink.com 1.10,2013-01-29 13:14:00,
2013-01-29 07:29:00,68.9,65.0,29.62,SSW,198,12.0,18.0,86,0.00,,,0.00,weatherlink.com 1.10,2013-01-29 13:29:00,
2013-01-29 07:44:00,68.9,65.0,29.61,SSW,194,11.0,17.0,86,0.00,,,0.00,weatherlink.com 1.10,2013-01-29 13:44:00,
2013-01-29 07:59:00,69.1,65.0,29.60,SE,139,8.0,18.0,86,0.00,,,0.00,weatherlink.com 1.10,2013-01-29 13:59:00,
2013-01-29 08:15:00,69.2,65.0,29.59,SSE,159,6.0,11.0,86,0.00,,,0.00,weatherlink.com 1.10,2013-01-29 14:15:00,
2013-01-29 08:29:00,69.4,65.0,29.58,SSW,205,11.0,16.0,85,0.00,,,0.00,weatherlink.com 1.10,2013-01-29 14:29:00,
2013-01-29 08:44:00,69.6,65.0,29.57,South,186,2.0,16.0,85,0.00,,,0.00,weatherlink.com 1.10,2013-01-29 14:44:00,
2013-01-29 09:00:00,69.9,65.0,29.57,SSW,201,10.0,22.0,84,0.00,,,0.00,weatherlink.com 1.10,2013-01-29 15:00:00,
2013-01-29 09:14:00,70.4,65.0,29.56,South,176,9.0,25.0,83,0.00,,,0.00,weatherlink.com 1.10,2013-01-29 15:14:00,
2013-01-29 09:30:00,70.7,65.0,29.55,SSW,197,14.0,25.0,82,0.00,,,0.00,weatherlink.com 1.10,2013-01-29 15:30:00,
2013-01-29 09:44:00,71.0,65.0,29.55,South,186,15.0,23.0,81,0.00,,,0.00,weatherlink.com 1.10,2013-01-29 15:44:00,
2013-01-29 09:59:00,71.2,65.0,29.54,SSW,192,15.0,26.0,81,0.00,,,0.00,weatherlink.com 1.10,2013-01-29 15:59:00,
2013-01-29 10:15:00,71.4,65.0,29.54,South,183,16.0,25.0,80,0.00,,,0.00,weatherlink.com 1.10,2013-01-29 16:15:00,
2013-01-29 10:30:00,71.5,65.0,29.52,South,184,12.0,24.0,80,0.00,,,0.00,weatherlink.com 1.10,2013-01-29 16:30:00,
2013-01-29 10:45:00,71.6,65.0,29.51,SSW,198,17.0,26.0,80,0.00,,,0.00,weatherlink.com 1.10,2013-01-29 16:45:00,
2013-01-29 11:00:00,72.1,66.0,29.50,South,175,23.0,30.0,80,0.00,,,0.00,weatherlink.com 1.10,2013-01-29 17:00:00,
2013-01-29 11:15:00,71.3,65.0,29.49,South,185,9.0,26.0,81,0.00,,,0.00,weatherlink.com 1.10,2013-01-29 17:15:00,
2013-01-29 11:30:00,71.9,65.0,29.47,SSW,194,27.0,32.0,79,0.00,,,0.00,weatherlink.com 1.10,2013-01-29 17:30:00,
2013-01-29 11:45:00,72.3,65.0,29.46,South,176,13.0,37.0,78,0.00,,,0.00,weatherlink.com 1.10,2013-01-29 17:45:00,
2013-01-29 12:00:00,72.7,66.0,29.46,SSW,192,20.0,29.0,78,0.00,,,0.00,weatherlink.com 1.10,2013-01-29 18:00:00,
2013-01-29 12:15:00,73.0,65.0,29.45,SSW,194,17.0,27.0,76,0.00,,,0.00,weatherlink.com 1.10,2013-01-29 18:15:00,
2013-01-29 12:30:00,71.9,61.0,29.47,West,262,17.0,29.0,68,0.00,,,0.00,weatherlink.com 1.10,2013-01-29 18:30:00,
2013-01-29 12:45:00,66.3,57.0,29.47,West,274,9.0,20.0,72,0.00,,,0.00,weatherlink.com 1.10,2013-01-29 18:45:00,
2013-01-29 13:00:00,63.8,56.0,29.48,West,267,9.0,26.0,77,0.00,,,0.00,weatherlink.com 1.10,2013-01-29 19:00:00,
2013-01-29 13:15:00,59.9,57.0,29.46,WSW,249,4.0,14.0,89,0.06,,,0.06,weatherlink.com 1.10,2013-01-29 19:15:00,
2013-01-29 13:30:00,59.5,57.0,29.43,WSW,242,0.0,6.0,91,0.09,,,0.09,weatherlink.com 1.10,2013-01-29 19:30:00,
2013-01-29 13:46:00,59.4,57.0,29.41,WSW,242,0.0,1.0,92,0.10,,,0.10,weatherlink.com 1.10,2013-01-29 19:46:00,
2013-01-29 14:01:00,59.3,57.0,29.41,WSW,242,0.0,1.0,93,0.11,,,0.11,weatherlink.com 1.10,2013-01-29 20:01:00,
2013-01-29 14:15:00,59.0,57.0,29.42,SE,144,0.0,9.0,93,0.05,,,0.11,weatherlink.com 1.10,2013-01-29 20:15:00,
2013-01-29 14:30:00,58.8,57.0,29.43,SSW,198,0.0,8.0,94,0.02,,,0.11,weatherlink.com 1.10,2013-01-29 20:30:00,
2013-01-29 14:45:00,58.8,57.0,29.45,SSW,198,5.0,7.0,94,0.02,,,0.12,weatherlink.com 1.10,2013-01-29 20:45:00,
2013-01-29 15:00:00,58.6,57.0,29.45,SSW,202,0.0,9.0,94,0.02,,,0.13,weatherlink.com 1.10,2013-01-29 21:00:00,
2013-01-29 15:15:00,58.6,57.0,29.46,SW,216,7.0,7.0,94,0.03,,,0.14,weatherlink.com 1.10,2013-01-29 21:15:00,
2013-01-29 15:30:00,58.2,56.0,29.44,SSW,213,0.0,1.0,93,0.03,,,0.14,weatherlink.com 1.10,2013-01-29 21:30:00,
2013-01-29 15:46:00,58.4,56.0,29.43,SSW,213,0.0,0.0,93,0.02,,,0.14,weatherlink.com 1.10,2013-01-29 21:46:00,
2013-01-29 16:01:00,58.5,57.0,29.44,SSW,213,0.0,0.0,93,0.01,,,0.14,weatherlink.com 1.10,2013-01-29 22:01:00,
2013-01-29 16:16:00,58.7,57.0,29.45,WSW,238,3.0,7.0,93,0.00,,,0.14,weatherlink.com 1.10,2013-01-29 22:16:00,
2013-01-29 16:30:00,58.7,57.0,29.45,WSW,251,6.0,8.0,93,0.00,,,0.14,weatherlink.com 1.10,2013-01-29 22:30:00,
2013-01-29 16:46:00,60.2,52.0,29.47,WNW,284,10.0,20.0,75,0.00,,,0.14,weatherlink.com 1.10,2013-01-29 22:46:00,
2013-01-29 17:00:00,60.5,45.0,29.50,West,273,9.0,23.0,57,0.00,,,0.14,weatherlink.com 1.10,2013-01-29 23:00:00,
2013-01-29 17:15:00,60.0,42.0,29.51,WNW,303,4.0,27.0,52,0.00,,,0.14,weatherlink.com 1.10,2013-01-29 23:15:00,
2013-01-29 17:31:00,59.7,41.0,29.52,West,279,12.0,25.0,50,0.00,,,0.14,weatherlink.com 1.10,2013-01-29 23:31:00,
2013-01-29 17:46:00,59.3,41.0,29.51,West,270,9.0,22.0,52,0.00,,,0.14,weatherlink.com 1.10,2013-01-29 23:46:00,
2013-01-29 18:01:00,59.3,39.0,29.51,WSW,255,19.0,24.0,48,0.00,,,0.14,weatherlink.com 1.10,2013-01-30 00:01:00,
2013-01-29 18:16:00,58.9,38.0,29.52,West,263,13.0,17.0,47,0.00,,,0.14,weatherlink.com 1.10,2013-01-30 00:16:00,
2013-01-29 18:31:00,58.5,39.0,29.51,West,263,0.0,11.0,49,0.00,,,0.14,weatherlink.com 1.10,2013-01-30 00:31:00,
2013-01-29 18:46:00,57.8,40.0,29.53,SW,232,0.0,6.0,52,0.00,,,0.14,weatherlink.com 1.10,2013-01-30 00:46:00,
2013-01-29 19:01:00,57.1,40.0,29.53,SW,232,0.0,0.0,54,0.00,,,0.14,weatherlink.com 1.10,2013-01-30 01:01:00,
2013-01-29 19:16:00,56.6,41.0,29.52,SW,223,0.0,0.0,56,0.00,,,0.14,weatherlink.com 1.10,2013-01-30 01:16:00,
2013-01-29 19:31:00,55.8,41.0,29.52,SW,223,0.0,0.0,57,0.00,,,0.14,weatherlink.com 1.10,2013-01-30 01:31:00,
2013-01-29 19:46:00,55.4,41.0,29.53,SW,223,0.0,4.0,58,0.00,,,0.14,weatherlink.com 1.10,2013-01-30 01:46:00,
2013-01-29 20:01:00,54.9,41.0,29.52,SW,221,0.0,5.0,60,0.00,,,0.14,weatherlink.com 1.10,2013-01-30 02:01:00,
2013-01-29 20:16:00,54.6,41.0,29.53,SW,217,0.0,1.0,60,0.00,,,0.14,weatherlink.com 1.10,2013-01-30 02:16:00,
2013-01-29 20:31:00,55.0,41.0,29.54,SW,223,6.0,8.0,59,0.00,,,0.14,weatherlink.com 1.10,2013-01-30 02:31:00,
2013-01-29 20:46:00,54.1,40.0,29.56,SSW,204,9.0,11.0,60,0.00,,,0.14,weatherlink.com 1.10,2013-01-30 02:46:00,
2013-01-29 21:01:00,54.3,40.0,29.54,SSW,207,7.0,11.0,59,0.00,,,0.14,weatherlink.com 1.10,2013-01-30 03:01:00,
2013-01-29 21:16:00,55.2,38.0,29.54,WSW,244,8.0,17.0,53,0.00,,,0.14,weatherlink.com 1.10,2013-01-30 03:16:00,
2013-01-29 21:31:00,55.7,36.0,29.54,WSW,239,6.0,18.0,48,0.00,,,0.14,weatherlink.com 1.10,2013-01-30 03:31:00,
2013-01-29 21:46:00,56.0,34.0,29.55,WSW,242,16.0,21.0,44,0.00,,,0.14,weatherlink.com 1.10,2013-01-30 03:46:00,
2013-01-29 22:01:00,55.4,33.0,29.55,SW,235,8.0,21.0,43,0.00,,,0.14,weatherlink.com 1.10,2013-01-30 04:01:00,
2013-01-29 22:16:00,55.0,32.0,29.55,WSW,238,21.0,23.0,42,0.00,,,0.14,weatherlink.com 1.10,2013-01-30 04:16:00,
2013-01-29 22:31:00,54.6,32.0,29.56,WSW,242,3.0,23.0,42,0.00,,,0.14,weatherlink.com 1.10,2013-01-30 04:31:00,
2013-01-29 22:46:00,54.2,31.0,29.56,WSW,239,18.0,23.0,41,0.00,,,0.14,weatherlink.com 1.10,2013-01-30 04:46:00,
2013-01-29 23:17:00,52.7,31.0,29.58,West,275,12.0,22.0,44,0.00,,,0.14,weatherlink.com 1.10,2013-01-30 05:17:00,
2013-01-29 23:46:00,51.3,32.0,29.60,West,272,10.0,19.0,48,0.00,,,0.14,weatherlink.com 1.10,2013-01-30 05:46:00,